Overview Statistics Trail Chart Weather Telemetry Raw packets
 

This is the latest recevied weather packets stored in our database for station/object N9BLE. If no packets are shown the sender has not sent any weather packets the latest 10 day(s).

<< 17 18 19 20 21 22 23 >>
Time Temp. Humidity Pressure Rain* Wind** Luminosity Snow
1777922970 25.56° C 30% 1003.3 hPa 0 mm - 716 W/m² -
1777922667 26.11° C 32% 1003.2 hPa 0 mm - 167 W/m² -
1777922366 27.22° C 31% 1003.5 hPa 0 mm - 305 W/m² -
1777922064 26.67° C 30% 1003.5 hPa 0 mm - 901 W/m² -
1777921759 25° C 33% 1003.5 hPa 0 mm - 236 W/m² -
1777921454 25° C 32% 1003.5 hPa 0 mm - 167 W/m² -
1777921151 26.11° C 32% 1003.5 hPa 0 mm - 166 W/m² -
1777920849 26.11° C 30% 1003.6 hPa 0 mm - 422 W/m² -
1777920544 26.11° C 32% 1003.7 hPa 0 mm - 876 W/m² -
1777920240 27.22° C 34% 1003.6 hPa 0 mm - 802 W/m² -
1777919936 26.67° C 29% 1003.6 hPa 0 mm - 760 W/m² -
1777919634 26.67° C 33% 1003.6 hPa 0 mm - 787 W/m² -
1777919331 26.67° C 33% 1003.5 hPa 0 mm - 754 W/m² -
1777919029 26.11° C 31% 1003.6 hPa 0 mm - 752 W/m² -
1777918725 26.11° C 33% 1003.8 hPa 0 mm - 754 W/m² -
1777918423 25.56° C 34% 1003.7 hPa 0 mm - 762 W/m² -
1777918122 25.56° C 32% 1003.7 hPa 0 mm - 761 W/m² -
1777917820 25.56° C 33% 1003.8 hPa 0 mm - 756 W/m² -
1777917518 25.56° C 33% 1003.8 hPa 0 mm - 759 W/m² -
1777917214 25.56° C 36% 1003.9 hPa 0 mm - 757 W/m² -
1777916912 25° C 35% 1004 hPa 0 mm - 761 W/m² -
1777916609 25.56° C 39% 1004.1 hPa 0 mm - 757 W/m² -
1777916306 25° C 38% 1004.3 hPa 0 mm - 763 W/m² -
1777916003 25° C 38% 1004.4 hPa 0 mm - 751 W/m² -
1777915700 24.44° C 36% 1004.6 hPa 0 mm - 743 W/m² -

* Rain latest hour (hover to see other rain measurements)
** Current wind speed in m/s (hover to see current wind gust speed)